Location: Binningen
(47.7924°N, 8.7261°E)
Time: 18:15:05
(UTC+00:00)

Cosmos 1733 Rocket - Pass Details

Date: 07 October 2021
Orbit: 604 x 627 km, 82.5° (Epoch: 20 October)

Event Time Altitude Azimuth Distance (km) Brightness Sun altitude
Rises 17:20:51 0° 230° (SW) 2,853 7.4 -5.6°
Reaches altitude 10° 17:23:41 10° 250° (WSW) 1,958 7.1 -6.1°
Maximum altitude 17:26:38 18° 293° (WNW) 1,522 6.2 -6.6°
Drops below altitude 10° 17:29:37 10° 337° (NNW) 1,975 6.0 -7.1°
Sets 17:32:30 0° 356° (N) 2,890 6.5 -7.6°
